Precipitable_Water
0.96 0.94 0.93 0.90 0.88 0.86 0.81 0.71 0.64 0.65 0.65 0.67 0.70 0.70 0.67 0.61 0.55 0.52 0.43 0.48 0.42 0.40 0.43 0.37 0.37 0.37 0.34 0.32 0.34 0.33 0.25 0.23 0.30 0.34 0.38 0.60 0.65 0.81 0.88 0.81 0.92 0.98 1.00 1.08 1.24
0.99 0.99 0.99 0.97 0.95 0.93 0.90 0.86 0.75 0.67 0.67 0.68 0.72 0.71 0.68 0.62 0.45 0.45 0.59 0.55 0.45 0.43 0.31 0.26 0.26 0.30 0.29 0.32 0.33 0.32 0.25 0.26 0.35 0.37 0.38 0.55 0.63 0.70 0.75 0.79 0.83 0.89 1.06 1.17 1.22
1.01 1.03 1.04 1.03 1.02 1.00 0.99 0.95 0.90 0.78 0.72 0.70 0.73 0.73 0.69 0.61 0.36 0.46 0.62 0.56 0.48 0.41 0.29 0.29 0.27 0.28 0.28 0.32 0.32 0.34 0.29 0.31 0.33 0.38 0.42 0.56 0.65 0.77 0.73 0.71 0.83 0.84 0.97 1.11 1.14
0.84 0.88 0.93 0.99 1.07 1.08 1.06 1.00 0.99 0.91 0.80 0.74 0.74 0.77 0.68 0.54 0.27 0.52 0.65 0.55 0.47 0.40 0.32 0.27 0.28 0.28 0.28 0.30 0.35 0.30 0.35 0.35 0.35 0.44 0.52 0.61 0.71 0.71 0.75 0.83 0.96 0.96 1.01 1.08 1.10
0.64 0.72 0.81 0.89 0.92 0.98 1.07 1.04 1.00 0.99 0.89 0.80 0.77 0.77 0.61 0.40 0.30 0.55 0.63 0.52 0.46 0.40 0.36 0.35 0.33 0.32 0.28 0.33 0.36 0.33 0.36 0.38 0.43 0.47 0.62 0.69 0.65 0.66 0.77 0.96 0.93 0.99 1.14 1.10 1.14
0.57 0.56 0.63 0.79 0.88 0.91 0.93 0.95 0.95 0.99 0.94 0.84 0.78 0.76 0.58 0.35 0.43 0.69 0.57 0.49 0.40 0.40 0.37 0.38 0.37 0.38 0.34 0.35 0.37 0.39 0.41 0.51 0.49 0.60 0.68 0.65 0.66 0.68 0.75 0.84 0.85 0.87 1.08 1.13 1.13
0.58 0.55 0.53 0.60 0.77 0.85 0.88 0.89 0.88 0.94 0.96 0.88 0.81 0.72 0.54 0.42 0.47 0.69 0.54 0.45 0.42 0.42 0.36 0.40 0.43 0.38 0.37 0.34 0.41 0.42 0.47 0.51 0.58 0.67 0.66 0.67 0.57 0.60 0.74 0.84 0.81 0.76 0.88 1.05 1.10
0.61 0.58 0.54 0.51 0.62 0.74 0.78 0.80 0.87 0.89 0.94 0.91 0.84 0.71 0.46 0.54 0.50 0.63 0.59 0.48 0.47 0.45 0.41 0.42 0.43 0.39 0.36 0.38 0.38 0.38 0.44 0.41 0.58 0.60 0.63 0.65 0.48 0.66 0.73 0.74 0.71 0.69 0.73 0.74 0.86
0.59 0.60 0.57 0.52 0.54 0.66 0.70 0.74 0.80 0.81 0.86 0.85 0.72 0.65 0.44 0.57 0.40 0.49 0.61 0.48 0.48 0.44 0.41 0.42 0.42 0.36 0.35 0.29 0.29 0.33 0.33 0.37 0.47 0.59 0.61 0.59 0.49 0.68 0.79 0.70 0.62 0.66 0.60 0.59 0.70
0.57 0.58 0.57 0.55 0.52 0.62 0.66 0.72 0.75 0.73 0.72 0.75 0.69 0.53 0.52 0.40 0.41 0.50 0.56 0.53 0.45 0.40 0.41 0.40 0.36 0.29 0.29 0.25 0.24 0.30 0.32 0.37 0.43 0.52 0.54 0.50 0.47 0.62 0.74 0.72 0.63 0.66 0.63 0.61 0.64
0.54 0.55 0.56 0.56 0.51 0.62 0.64 0.64 0.56 0.50 0.58 0.40 0.44 0.44 0.41 0.53 0.56 0.49 0.56 0.49 0.50 0.44 0.33 0.37 0.28 0.23 0.25 0.27 0.34 0.33 0.32 0.33 0.38 0.46 0.46 0.42 0.43 0.53 0.67 0.72 0.68 0.66 0.66 0.62 0.61
0.54 0.52 0.53 0.55 0.49 0.63 0.63 0.54 0.62 0.65 0.41 0.48 0.43 0.46 0.53 0.50 0.42 0.47 0.58 0.45 0.44 0.34 0.39 0.32 0.24 0.28 0.28 0.29 0.30 0.31 0.30 0.33 0.36 0.40 0.41 0.38 0.37 0.44 0.57 0.63 0.72 0.69 0.65 0.66 0.68
0.56 0.53 0.52 0.52 0.49 0.57 0.52 0.56 0.75 0.77 0.47 0.46 0.49 0.42 0.45 0.53 0.40 0.42 0.49 0.47 0.42 0.37 0.33 0.30 0.31 0.32 0.29 0.31 0.29 0.30 0.31 0.33 0.34 0.38 0.41 0.36 0.32 0.37 0.46 0.59 0.68 0.73 0.68 0.68 0.68
0.59 0.55 0.54 0.52 0.40 0.49 0.42 0.59 0.72 0.81 0.38 0.37 0.42 0.45 0.45 0.46 0.41 0.46 0.49 0.46 0.43 0.35 0.36 0.34 0.37 0.32 0.31 0.31 0.34 0.30 0.36 0.36 0.36 0.34 0.29 0.34 0.26 0.29 0.37 0.42 0.51 0.60 0.64 0.61 0.65
0.64 0.58 0.55 0.54 0.50 0.42 0.51 0.66 0.74 0.73 0.18 0.32 0.43 0.61 0.53 0.38 0.41 0.39 0.50 0.47 0.39 0.34 0.36 0.30 0.31 0.32 0.30 0.32 0.36 0.35 0.40 0.38 0.38 0.36 0.34 0.32 0.26 0.31 0.33 0.30 0.37 0.49 0.57 0.62 0.63
0.54 0.65 0.57 0.53 0.49 0.55 0.67 0.74 0.69 0.32 0.17 0.26 0.43 0.43 0.42 0.42 0.39 0.41 0.41 0.48 0.47 0.38 0.37 0.37 0.38 0.37 0.36 0.38 0.40 0.43 0.39 0.39 0.40 0.36 0.27 0.31 0.28 0.29 0.31 0.31 0.35 0.44 0.55 0.61 0.65
0.53 0.61 0.60 0.57 0.35 0.67 0.75 0.59 0.28 0.21 0.27 0.24 0.34 0.41 0.40 0.36 0.37 0.36 0.36 0.37 0.31 0.26 0.27 0.33 0.33 0.37 0.39 0.34 0.40 0.39 0.35 0.28 0.26 0.26 0.25 0.34 0.29 0.31 0.35 0.34 0.35 0.36 0.44 0.57 0.64
0.50 0.58 0.59 0.57 0.56 0.67 0.67 0.37 0.15 0.16 0.23 0.34 0.37 0.41 0.34 0.36 0.36 0.36 0.35 0.32 0.37 0.30 0.29 0.25 0.24 0.31 0.37 0.36 0.34 0.34 0.35 0.28 0.22 0.21 0.23 0.32 0.24 0.30 0.36 0.36 0.36 0.42 0.44 0.47 0.60
0.56 0.55 0.57 0.51 0.53 0.65 0.52 0.24 0.12 0.15 0.27 0.26 0.33 0.33 0.36 0.34 0.35 0.36 0.36 0.34 0.34 0.32 0.26 0.25 0.25 0.35 0.37 0.40 0.39 0.36 0.30 0.39 0.32 0.32 0.25 0.28 0.30 0.31 0.33 0.34 0.35 0.43 0.47 0.45 0.52
0.51 0.50 0.53 0.59 0.54 0.52 0.39 0.25 0.17 0.21 0.31 0.33 0.25 0.30 0.31 0.32 0.28 0.32 0.34 0.38 0.34 0.34 0.34 0.30 0.25 0.33 0.39 0.44 0.44 0.41 0.42 0.29 0.32 0.24 0.21 0.25 0.27 0.26 0.31 0.30 0.32 0.34 0.38 0.48 0.57
0.53 0.39 0.50 0.67 0.57 0.39 0.27 0.23 0.21 0.26 0.36 0.32 0.34 0.29 0.34 0.36 0.32 0.31 0.34 0.37 0.36 0.34 0.34 0.32 0.29 0.33 0.38 0.35 0.34 0.37 0.34 0.35 0.36 0.33 0.25 0.22 0.25 0.35 0.34 0.34 0.34 0.37 0.39 0.41 0.42
0.51 0.31 0.58 0.66 0.33 0.32 0.24 0.21 0.28 0.28 0.41 0.36 0.41 0.42 0.33 0.37 0.38 0.32 0.30 0.32 0.36 0.36 0.29 0.33 0.30 0.27 0.30 0.41 0.44 0.41 0.35 0.37 0.29 0.27 0.29 0.27 0.24 0.38 0.39 0.39 0.36 0.40 0.39 0.42 0.46
0.43 0.43 0.64 0.57 0.26 0.22 0.20 0.21 0.34 0.32 0.31 0.37 0.33 0.39 0.42 0.40 0.36 0.37 0.35 0.37 0.38 0.34 0.31 0.35 0.29 0.24 0.26 0.31 0.36 0.32 0.35 0.34 0.35 0.33 0.27 0.25 0.26 0.37 0.36 0.34 0.36 0.38 0.41 0.39 0.42
0.47 0.35 0.47 0.48 0.34 0.26 0.14 0.16 0.26 0.38 0.36 0.38 0.38 0.37 0.40 0.43 0.44 0.38 0.39 0.40 0.39 0.35 0.38 0.37 0.29 0.25 0.22 0.24 0.30 0.31 0.31 0.35 0.33 0.29 0.28 0.30 0.30 0.35 0.39 0.36 0.39 0.41 0.42 0.42 0.40
0.48 0.39 0.41 0.28 0.30 0.21 0.21 0.13 0.16 0.25 0.33 0.42 0.41 0.37 0.36 0.39 0.42 0.40 0.44 0.44 0.43 0.40 0.37 0.37 0.27 0.29 0.27 0.28 0.27 0.27 0.26 0.29 0.27 0.29 0.29 0.33 0.32 0.34 0.36 0.39 0.39 0.33 0.31 0.38 0.41
0.41 0.40 0.44 0.35 0.36 0.24 0.21 0.21 0.20 0.26 0.29 0.26 0.35 0.39 0.38 0.42 0.44 0.44 0.50 0.48 0.43 0.43 0.37 0.39 0.29 0.30 0.26 0.28 0.30 0.27 0.27 0.28 0.30 0.30 0.32 0.32 0.31 0.33 0.33 0.36 0.35 0.33 0.32 0.41 0.44
0.52 0.51 0.44 0.36 0.35 0.28 0.20 0.23 0.23 0.26 0.30 0.30 0.31 0.36 0.34 0.35 0.51 0.54 0.62 0.62 0.57 0.51 0.40 0.37 0.33 0.29 0.24 0.31 0.30 0.25 0.28 0.29 0.30 0.33 0.32 0.29 0.33 0.34 0.34 0.34 0.33 0.37 0.41 0.37 0.49
Wind_Speed
26 26 26 25 25 24 23 23 22 22 22 22 23 23 23 23 21 15 13 13 13 12 11 10 11 11 8 6 3 1 3 2 2 3 3 3 4 5 6 8 9 11 11 11 13
26 25 25 25 25 25 24 23 23 22 22 22 23 23 23 22 17 14 12 12 11 9 10 9 9 8 6 4 1 2 3 2 2 3 4 4 6 5 6 7 7 9 9 11 13
28 27 27 26 26 25 25 25 24 23 23 23 23 23 23 20 15 11 11 11 9 8 9 8 7 6 4 2 1 2 2 2 4 4 6 5 5 5 6 6 7 9 10 11 11
30 29 28 27 27 27 26 25 24 24 23 23 23 22 21 16 12 10 12 9 8 7 6 6 6 5 3 1 0 3 3 5 5 5 5 5 3 3 5 7 7 7 10 11 11
30 30 30 29 28 28 27 26 25 24 23 23 22 21 17 15 14 12 10 7 6 5 5 6 5 4 2 1 2 5 5 5 5 4 3 2 2 2 2 1 1 3 10 10 11
30 29 29 30 29 28 27 27 26 25 23 22 21 19 16 16 12 11 8 7 7 5 6 6 6 4 3 3 3 3 3 1 1 3 2 1 1 3 1 2 1 2 5 10 9
31 30 29 29 29 29 28 27 26 25 24 22 21 17 16 17 12 11 8 8 7 6 5 6 6 5 4 4 3 3 3 1 1 1 2 2 1 2 4 3 3 4 6 11 11
32 31 30 29 28 28 27 27 27 26 24 23 20 18 17 15 13 12 10 9 7 7 6 6 6 6 5 4 4 4 5 1 7 4 3 3 4 4 5 4 4 7 8 10 12
34 33 31 29 28 27 26 26 26 25 23 20 18 18 18 14 15 15 13 9 9 8 7 7 7 6 6 7 6 5 3 1 5 6 3 4 2 4 4 3 5 8 10 11 14
36 34 32 30 29 27 25 25 24 23 21 20 19 17 18 14 14 14 15 12 9 8 7 8 7 8 7 9 8 5 4 5 4 7 7 5 3 4 4 4 6 8 9 11 13
37 35 34 31 29 27 25 23 21 20 20 21 16 17 14 14 15 17 15 14 11 10 10 8 8 9 9 10 7 7 6 5 3 4 6 8 7 5 6 6 8 8 10 11 13
39 37 35 33 30 28 26 25 23 22 24 24 25 25 23 15 15 18 17 15 14 13 9 7 10 8 6 10 11 9 8 7 6 4 7 7 7 6 8 8 9 9 11 12 13
43 39 37 35 32 30 29 27 25 24 25 24 25 24 24 24 20 21 20 17 17 15 12 10 4 4 7 10 10 11 10 7 7 5 7 7 7 7 8 9 9 10 11 12 13
45 43 39 36 34 32 30 27 25 23 24 23 23 23 23 22 23 23 23 18 15 17 12 11 6 7 8 9 10 9 10 7 7 7 5 5 4 7 8 10 12 12 14 14 15
48 47 43 41 36 33 28 26 24 21 21 15 17 19 20 26 17 24 25 21 20 15 13 11 10 9 9 9 11 8 8 6 6 8 6 6 6 4 6 10 12 14 16 16 16
52 49 46 43 41 35 30 26 24 23 24 18 16 18 19 25 21 20 24 22 19 17 16 11 9 10 8 8 10 7 9 7 7 7 8 7 7 6 7 9 8 11 15 18 18
52 51 49 47 41 37 34 29 26 30 20 21 18 17 21 22 23 24 28 28 23 20 18 16 14 10 9 10 10 11 11 9 9 8 9 6 8 11 7 8 11 12 13 18 21
49 51 52 49 46 40 37 33 34 32 34 17 18 18 19 22 25 26 29 29 30 24 17 17 16 16 13 14 11 15 14 10 8 9 7 6 7 5 6 10 12 14 17 17 18
42 48 51 51 48 43 39 40 41 37 31 32 19 18 20 22 21 25 29 32 30 26 20 18 17 10 13 12 14 12 15 10 9 7 9 10 10 12 7 7 7 8 8 14 16
36 41 48 51 49 45 42 48 42 35 31 28 33 22 21 24 25 26 27 31 32 28 25 14 16 13 11 12 12 12 13 11 12 11 12 9 10 8 9 7 7 6 5 7 10
37 34 39 48 49 46 44 50 49 39 34 31 27 27 23 22 27 27 25 20 32 28 27 20 16 11 12 16 16 14 15 13 11 11 11 10 9 9 10 10 10 9 9 8 8
39 37 33 42 47 48 49 52 49 45 37 32 28 27 26 25 24 29 30 28 25 30 29 25 18 17 16 10 13 16 17 19 16 13 12 12 13 12 13 11 12 11 11 11 11
40 37 36 40 42 51 53 54 49 39 41 36 31 29 26 25 25 27 28 26 27 26 27 24 22 18 19 15 14 16 17 18 16 15 17 14 11 5 7 11 11 13 13 13 13
40 37 35 41 43 50 57 56 51 45 38 37 33 28 27 26 24 23 26 23 28 28 22 25 25 25 20 18 15 16 19 20 21 19 19 20 18 16 16 15 14 13 14 15 14
42 39 41 41 43 50 56 55 55 53 45 35 34 35 29 24 24 24 22 22 22 23 24 25 27 25 23 21 21 22 21 20 23 23 22 19 20 17 17 17 16 14 14 15 14
44 39 41 35 44 45 52 56 58 50 46 46 38 33 31 29 23 19 22 19 20 22 23 23 23 24 23 22 21 22 21 22 23 23 21 23 22 19 19 18 18 17 16 13 12
48 45 39 40 42 38 49 56 53 54 53 40 38 33 34 32 24 20 21 21 20 19 24 22 22 19 21 17 17 17 21 21 21 21 21 22 20 20 19 20 20 19 17 16 14
Wind_Direction
273 274 275 277 278 280 284 288 291 295 299 304 308 311 314 315 313 306 308 317 320 323 328 335 336 339 339 335 320 267 224 200 207 254 299 271 256 243 235 232 240 243 243 229 217
273 275 274 276 276 278 281 284 288 292 296 300 305 308 311 313 307 297 305 311 318 320 326 326 331 335 340 333 322 222 222 198 237 271 293 280 269 248 250 243 250 233 225 219 217
270 272 273 274 276 278 279 280 284 289 293 298 303 305 308 309 299 294 302 304 310 316 324 326 333 335 338 348 186 177 235 280 260 277 284 292 279 264 256 253 263 229 218 215 218
268 269 271 273 273 275 277 279 282 285 290 294 299 302 305 298 295 291 300 293 299 314 326 335 334 330 341 336 205 256 249 282 278 286 277 290 273 285 273 281 269 222 220 218 216
269 269 269 270 272 273 274 276 278 282 287 290 294 300 298 289 282 286 292 279 285 301 311 321 324 320 307 289 292 260 291 290 272 261 254 284 301 329 308 246 148 255 210 208 213
268 270 268 268 269 271 272 274 276 279 282 287 289 295 289 284 280 274 273 267 272 275 297 310 326 310 279 284 269 310 299 315 270 209 215 243 279 266 95 136 106 94 205 205 192
267 268 269 269 268 269 271 272 274 276 278 281 283 283 279 276 272 259 255 262 263 264 289 303 316 299 284 253 261 277 203 91 68 188 187 196 163 80 154 144 115 127 115 159 161
263 265 267 269 267 268 270 271 271 274 275 276 275 273 270 271 259 247 246 254 249 259 284 301 303 299 255 256 241 232 232 294 242 206 178 205 91 133 144 138 132 128 146 136 142
261 262 264 266 266 266 269 269 271 271 271 268 266 265 267 261 252 241 237 248 240 253 272 290 296 291 247 245 230 213 219 205 156 203 195 214 75 149 170 155 143 148 143 146 144
258 259 260 262 263 264 266 268 269 267 263 262 259 262 255 256 242 233 229 235 240 240 265 273 280 273 239 232 224 194 203 196 179 193 216 223 261 180 194 191 173 168 166 165 163
256 256 257 258 259 259 263 264 262 259 257 255 250 252 257 257 237 227 224 225 234 241 253 261 269 257 241 222 224 216 222 238 219 193 239 247 261 223 211 213 199 191 185 182 181
253 253 254 255 255 254 256 259 261 263 265 257 252 250 248 252 240 226 219 221 227 235 244 259 259 269 245 212 212 220 227 228 235 228 234 248 254 230 215 212 206 204 196 196 193
250 250 250 251 252 250 253 256 259 263 261 257 252 251 245 234 235 225 218 225 225 232 235 248 273 234 205 202 207 224 236 231 253 236 244 246 233 225 220 218 214 213 207 204 203
247 246 247 247 248 248 252 254 254 256 262 258 249 245 232 229 234 224 218 222 226 229 232 246 237 223 214 213 214 226 219 231 243 233 233 221 227 218 219 224 224 221 217 215 212
245 243 242 240 246 244 245 249 245 249 261 252 237 234 228 220 220 218 214 220 224 221 225 232 220 216 221 223 212 229 212 228 242 229 239 217 251 187 232 229 226 226 224 221 218
241 240 238 239 239 239 239 242 238 242 247 246 234 226 220 222 223 207 211 218 224 220 228 236 228 226 231 218 214 211 214 228 222 224 234 226 250 249 218 227 234 234 228 225 223
239 236 235 234 233 233 234 233 234 236 240 237 235 226 221 217 217 213 208 210 211 212 220 224 226 226 226 215 216 218 215 218 224 218 239 228 243 250 249 246 253 260 249 233 227
239 234 232 231 229 230 228 228 232 234 229 237 231 223 221 212 220 215 210 212 215 214 223 224 227 225 222 229 224 217 220 223 226 225 225 223 243 244 255 270 269 266 256 240 233
237 231 230 227 223 224 223 224 229 232 231 228 229 227 221 220 224 214 217 215 212 211 214 220 228 227 230 227 223 212 223 231 229 244 252 250 252 262 248 263 271 281 248 229 234
232 231 230 223 219 219 224 226 228 230 227 226 230 228 222 217 219 216 215 218 213 212 216 222 228 231 219 221 220 228 203 220 230 238 247 238 253 254 266 262 266 263 245 235 236
227 229 228 218 215 217 222 223 227 227 226 223 225 226 224 218 218 218 219 218 211 210 214 218 230 221 222 223 217 217 224 231 240 245 249 258 258 254 265 261 269 258 254 258 250
223 227 222 211 213 216 219 221 222 223 224 225 228 225 223 221 221 221 222 216 211 209 211 216 226 229 224 226 236 233 235 229 236 236 248 260 267 269 261 268 260 254 253 257 258
222 221 217 212 215 216 217 222 222 224 221 220 221 221 220 222 222 222 223 216 210 207 212 208 221 228 229 231 233 234 231 235 241 246 244 253 267 257 257 271 262 263 260 255 259
216 216 216 217 220 216 216 216 219 219 220 218 220 218 216 219 221 221 219 214 213 214 215 210 222 226 232 234 234 234 236 235 238 244 247 246 260 267 272 269 268 263 263 259 256
213 216 215 216 217 217 217 213 214 214 215 215 218 217 212 216 216 219 216 209 210 212 216 217 226 227 233 239 249 245 244 239 239 243 247 249 258 266 271 265 266 268 267 264 256
212 212 212 219 214 217 216 216 211 209 211 213 218 214 214 217 213 214 211 208 213 210 212 216 225 228 234 241 242 246 246 247 239 247 250 255 262 268 271 267 264 264 261 257 255
210 211 212 215 212 217 215 214 212 209 213 215 216 218 219 219 221 227 220 218 224 214 213 216 215 217 229 232 243 249 243 243 242 243 244 251 260 269 270 270 263 258 254 251 250